Location: Krakow
(50.0212°N, 19.9423°E)
Time: 00:21:31
(UTC+02:00)

NOAA 18 - Pass Details

Date: 13 August 2024
Orbit: 837 x 859 km, 98.9° (Epoch: 19 September)

Event Time Altitude Azimuth Distance (km) Brightness Sun altitude
Exits shadow 00:12:59 15° 247° (WSW) 2,139 7.1 -25.0°
Maximum altitude 00:14:54 18° 272° (W) 1,994 7.2 -25.0°
Drops below altitude 10° 00:18:36 10° 314° (NW) 2,504 8.3 -25.1°
Sets 00:21:49 0° 333° (NNW) 3,447 9.5 -25.2°
